FW5357 Weather Reports


time (UTC)temp
C
wind
direction
speed
KPH
gust
KPH
rain 1hr
cm
rain 24hr
cm
rain mn
cm
humidity
%
barometer
mb
20260505221532 24 344 8.0 17.7 0.00 0.00 0.00 45 1014.7
20260505213028 23 6 6.4 14.5 0.00 0.00 0.00 46 1014.9
20260505211605 23 4 4.8 11.3 0.00 0.00 0.00 46 1015.0
20260505210044 23 2 4.8 14.5 0.00 0.00 0.00 47 1015.2
20260505204536 22 357 6.4 14.5 0.00 0.00 0.00 47 1015.3
20260505203034 22 3 6.4 14.5 0.00 0.00 0.00 47 1015.4
20260505201534 22 359 6.4 16.1 0.00 0.00 0.00 47 1015.4
20260505200143 22 3 8.0 16.1 0.00 0.00 0.00 46 1015.5
20260505194530 22 2 6.4 16.1 0.00 0.00 0.00 47 1015.7
20260505193035 22 12 4.8 14.5 0.00 0.00 0.00 47 1015.6
20260505191537 22 355 4.8 12.9 0.00 0.00 0.00 47 1015.7
20260505190031 22 358 6.4 16.1 0.00 0.00 0.00 47 1015.8
20260505184530 22 347 4.8 12.9 0.00 0.00 0.00 48 1015.9
20260505183036 22 337 3.2 14.5 0.00 0.00 0.00 49 1015.9
20260505181535 21 311 3.2 14.5 0.00 0.00 0.00 51 1015.9
20260505180032 21 338 3.2 16.1 0.00 0.00 0.00 51 1015.9
20260505174532 20 326 1.6 14.5 0.00 0.00 0.00 53 1015.9
20260505171532 20 352 3.2 9.7 0.00 0.00 0.00 54 1015.9
20260505170032 20 338 1.6 11.3 0.00 0.00 0.00 56 1015.9
20260505164535 19 331 1.6 11.3 0.00 0.00 0.00 57 1015.9
20260505163031 18 310 1.6 9.7 0.00 0.00 0.00 62 1016.0
20260505153149 16 62 0.0 6.4 0.00 0.00 0.00 66 1015.7
20260505123036 9 247 0.0 0.0 0.00 0.00 0.00 88 1014.2
20260505120030 10 334 0.0 0.0 0.00 0.00 0.00 86 1014.1
20260505114534 10 307 0.0 0.0 0.00 0.00 0.00 86 1014.0
20260505113035 10 241 0.0 0.0 0.00 0.00 0.00 84 1013.9
20260505111534 11 226 0.0 3.2 0.00 0.00 0.00 82 1013.8
20260505101533 11 233 1.6 4.8 0.00 0.00 0.00 80 1013.4
20260505100108 12 267 0.0 3.2 0.00 0.00 0.00 78 1013.3
20260505094534 12 224 0.0 4.8 0.00 0.00 0.00 77 1013.3
20260505093108 12 318 0.0 0.0 0.00 0.00 0.00 76 1013.3
20260505091530 13 14 0.0 6.4 0.00 0.00 0.00 75 1013.1
20260505090036 13 23 0.0 4.8 0.00 0.00 0.00 75 1012.9
20260505084532 13 82 0.0 4.8 0.00 0.00 0.00 75 1013.0
20260505083033 13 154 0.0 4.8 0.00 0.00 0.00 74 1013.0
20260505081606 13 241 0.0 1.6 0.00 0.00 0.00 73 1013.0
20260505080032 13 68 1.6 6.4 0.00 0.00 0.00 71 1012.9
20260505073031 13 17 0.0 4.8 0.00 0.00 0.00 69 1012.8
20260505071537 14 40 0.0 3.2 0.00 0.00 0.00 67 1012.8
20260505070030 15 128 0.0 6.4 0.00 0.00 0.00 65 1012.6
20260505064553 15 265 1.6 6.4 0.00 0.00 0.00 63 1012.6
20260505063028 15 238 1.6 8.0 0.00 0.00 0.00 62 1012.6
20260505061535 15 259 0.0 4.8 0.00 0.00 0.00 60 1012.6
20260505060036 16 215 3.2 6.4 0.00 0.00 0.00 56 1012.4
20260505054530 17 276 1.6 6.4 0.00 0.00 0.00 54 1012.3
20260505051530 17 231 4.8 11.3 0.00 0.00 0.00 53 1012.2
20260505050107 17 222 3.2 11.3 0.00 0.00 0.00 52 1012.1
20260505041606 19 236 4.8 14.5 0.00 0.00 0.00 47 1011.6
20260505034530 19 216 4.8 17.7 0.00 0.00 0.00 48 1011.1
20260505033036 20 195 0.0 8.0 0.00 0.00 0.00 46 1011.0
20260505031535 20 210 1.6 9.7 0.00 0.00 0.00 44 1010.8
20260505030108 21 207 8.0 16.1 0.00 0.00 0.00 42 1010.5
20260505024533 21 208 8.0 16.1 0.00 0.00 0.00 40 1010.4
20260505023030 22 208 8.0 16.1 0.00 0.00 0.00 39 1010.2
20260505021530 23 186 8.0 19.3 0.00 0.00 0.00 37 1010.1
20260505020034 23 184 8.0 17.7 0.00 0.00 0.00 35 1010.1
20260505014537 24 194 9.7 17.7 0.00 0.00 0.00 33 1010.1
20260505011536 26 205 11.3 22.5 0.00 0.00 0.00 32 1010.0
20260505010037 26 192 9.7 20.9 0.00 0.00 0.00 33 1010.0
20260505004535 25 127 4.8 19.3 0.00 0.00 0.00 39 1010.1
20260505003150 25 16 4.8 12.9 0.00 0.00 0.00 40 1010.1
20260505001536 26 27 8.0 20.9 0.00 0.00 0.00 39 1010.1
20260505000145 26 17 8.0 24.1 0.00 0.00 0.00 39 1010.1
20260504234535 26 12 6.4 17.7 0.00 0.00 0.00 39 1010.2
20260504233037 26 24 6.4 17.7 0.00 0.00 0.00 38 1010.3
20260504231652 26 16 6.4 16.1 0.00 0.00 0.00 37 1010.4
20260504230030 26 12 4.8 12.9 0.00 0.00 0.00 37 1010.5